DW7110 Weather Reports


Display with metric or nautical units.
time (UTC)temp
F
wind
direction
speed
MPH
gust
MPH
rain 1hr
in
rain 24hr
in
rain mn
in
humidity
%
barometer
mb
20260508190038 68 1 2.0 5.0 0.00 0.00 0.00 58 1017.1
20260508184536 68 1 2.0 9.0 0.00 0.00 0.00 56 1017.2
20260508183034 67 1 3.0 7.0 0.00 0.00 0.00 59 1017.4
20260508181550 67 1 1.0 5.0 0.00 0.00 0.00 59 1017.6
20260508180030 65 1 2.0 7.0 0.00 0.00 0.00 58 1017.7
20260508174530 65 1 0.0 6.0 0.00 0.00 0.00 56 1017.9
20260508173037 66 1 2.0 6.0 0.00 0.00 0.00 58 1018.0
20260508171532 65 1 2.0 9.0 0.00 0.00 0.00 56 1018.4
20260508170027 64 1 1.0 7.0 0.00 0.00 0.00 58 1018.8
20260508164524 65 1 0.0 4.0 0.00 0.00 0.00 50 1018.8
20260508163022 64 1 1.0 7.0 0.00 0.00 0.00 47 1019.1
20260508161524 62 1 1.0 7.0 0.00 0.00 0.00 58 1019.3
20260508160018 60 1 0.0 5.0 0.00 0.00 0.00 67 1019.5
20260508154509 59 1 1.0 8.0 0.00 0.00 0.00 63 1019.5
20260508153008 59 1 1.0 5.0 0.00 0.00 0.00 70 1019.6
20260508151505 57 1 0.0 2.0 0.00 0.00 0.00 73 1019.8
20260508144557 55 1 0.0 0.0 0.00 0.00 0.00 86 1019.7
20260508143055 53 1 0.0 0.0 0.00 0.00 0.00 88 1019.8
20260508141553 52 1 0.0 0.0 0.00 0.00 0.00 89 1020.0
20260508140047 50 1 0.0 0.0 0.00 0.00 0.00 91 1020.2
20260508134542 49 1 0.0 0.0 0.00 0.00 0.00 91 1020.2
20260508133055 47 1 0.0 0.0 0.00 0.00 0.00 92 1020.3
20260508131545 47 1 0.0 0.0 0.00 0.00 0.00 92 1020.3
20260508130039 46 1 0.0 0.0 0.00 0.00 0.00 93 1020.1
20260508124538 45 1 0.0 0.0 0.00 0.03 0.00 93 1020.1
20260508123051 44 1 0.0 0.0 0.00 0.03 0.00 92 1020.0
20260508121543 43 1 0.0 0.0 0.00 0.03 0.00 91 1019.7
20260508120033 43 1 0.0 0.0 0.00 0.03 0.00 91 1019.6
20260508114531 43 1 0.0 0.0 0.00 0.05 0.00 90 1019.3
20260508113031 43 1 0.0 0.0 0.00 0.05 0.00 90 1019.0
20260508111528 44 1 0.0 0.0 0.00 0.05 0.00 90 1018.8
20260508110026 44 1 0.0 0.0 0.00 0.05 0.00 89 1018.4
20260508104523 44 1 0.0 0.0 0.00 0.14 0.00 89 1018.2
20260508103022 44 1 0.0 1.0 0.00 0.14 0.00 88 1018.0
20260508101520 44 1 0.0 0.0 0.00 0.14 0.00 89 1017.8
20260508100019 44 1 0.0 0.0 0.00 0.14 0.00 90 1017.6
20260508094515 44 1 0.0 0.0 0.00 0.14 0.00 88 1017.4
20260508093020 45 1 0.0 0.0 0.00 0.14 0.00 88 1017.2
20260508091514 45 1 0.0 0.0 0.00 0.14 0.00 87 1017.1
20260508090009 46 1 0.0 0.0 0.00 0.14 0.00 86 1017.0
20260508084506 46 1 0.0 0.0 0.00 0.14 0.00 86 1016.9
20260508083005 47 1 0.0 0.0 0.00 0.14 0.00 85 1016.8
20260508081505 47 1 0.0 0.0 0.00 0.14 0.00 84 1016.9
20260508080003 47 1 0.0 0.0 0.00 0.14 0.00 83 1016.6
20260508074501 47 1 0.0 4.0 0.00 0.27 0.00 85 1016.6
20260508073100 48 1 0.0 3.0 0.00 0.27 0.00 81 1016.5
20260508071601 48 1 0.0 5.0 0.00 0.27 0.00 82 1016.4
20260508070106 47 1 2.0 5.0 0.00 0.27 0.00 83 1016.5
20260508064554 46 1 1.0 3.0 0.00 0.27 0.00 88 1016.5
20260508063056 46 1 2.0 5.0 0.00 0.27 0.00 89 1016.3
20260508061552 47 1 0.0 0.0 0.00 0.27 0.00 89 1016.5
20260508060055 47 1 0.0 0.0 0.00 0.27 0.00 89 1016.4
20260508054553 47 1 0.0 2.0 0.00 0.37 0.00 88 1016.4
20260508053054 47 1 0.0 0.0 0.00 0.37 0.00 88 1016.4
20260508051547 47 1 0.0 0.0 0.00 0.37 0.00 88 1016.5
20260508050046 47 1 0.0 0.0 0.00 0.37 0.00 88 1016.5
20260508044600 48 1 0.0 1.0 0.00 0.48 0.00 88 1016.2
20260508043046 48 1 0.0 0.0 0.00 0.48 0.00 88 1016.3
20260508041540 48 1 0.0 0.0 0.00 0.48 0.00 86 1016.3
20260508040037 48 1 0.0 0.0 0.00 0.48 0.00 87 1016.3
20260508034543 49 1 0.0 0.0 0.00 0.50 0.48 87 1016.2
20260508033034 49 1 0.0 0.0 0.00 0.50 0.48 86 1016.2
20260508031533 49 1 0.0 0.0 0.00 0.50 0.48 86 1016.3
20260508030037 50 1 0.0 0.0 0.00 0.50 0.48 85 1016.3
20260508024534 50 1 0.0 0.0 0.00 0.50 0.48 85 1016.1
20260508023030 50 1 0.0 0.0 0.00 0.50 0.48 83 1016.0
20260508021525 51 1 0.0 0.0 0.00 0.50 0.48 83 1015.7
20260508020020 51 1 0.0 0.0 0.00 0.50 0.48 79 1015.5
20260508014518 52 1 0.0 0.0 0.00 0.60 0.48 78 1015.2
20260508013017 52 1 1.0 3.0 0.00 0.60 0.48 78 1015.1
20260508011522 52 1 0.0 5.0 0.00 0.60 0.48 82 1014.8
20260508010014 52 1 3.0 5.0 0.00 0.60 0.48 81 1014.8
20260508004518 52 1 2.0 7.0 0.00 0.69 0.48 86 1014.4
20260508003011 53 1 4.0 8.0 0.00 0.69 0.48 81 1014.3
20260508001509 53 1 4.0 11.0 0.00 0.69 0.48 86 1013.8
20260508000009 53 1 5.0 8.0 0.00 0.69 0.48 85 1013.7
20260507234515 54 1 5.0 8.0 0.00 0.79 0.48 84 1013.6
20260507233002 55 1 4.0 6.0 0.00 0.79 0.48 85 1013.3
20260507231604 56 1 3.0 6.0 0.00 0.79 0.48 80 1013.4
20260507224558 56 1 4.0 7.0 0.00 0.95 0.48 83 1013.4
20260507223059 57 1 5.0 11.0 0.00 0.95 0.48 76 1013.4
20260507221553 57 1 5.0 10.0 0.00 0.95 0.48 78 1013.1
20260507220052 57 1 4.0 7.0 0.00 0.95 0.48 81 1012.9
20260507214552 58 1 4.0 12.0 0.00 1.08 0.48 78 1012.7
20260507213048 58 1 2.0 9.0 0.00 1.08 0.48 77 1012.4
20260507211551 60 1 6.0 14.0 0.00 1.08 0.48 76 1012.1
20260507210049 61 1 4.0 9.0 0.00 1.08 0.48 73 1011.7
20260507204545 62 1 0.0 7.0 0.00 1.27 0.48 73 1011.5
20260507203051 62 1 1.0 9.0 0.00 1.27 0.48 80 1011.5
20260507201544 61 1 1.0 5.0 0.00 1.27 0.48 79 1011.9
20260507200049 61 1 1.0 4.0 0.00 1.27 0.48 80 1011.9
20260507194543 61 1 4.0 8.0 0.00 1.32 0.48 80 1012.0
20260507193047 62 1 3.0 7.0 0.00 1.32 0.48 79 1011.7
20260507191542 62 1 1.0 10.0 0.00 1.32 0.48 81 1011.7